Regional Weather Roundup
Issued by NWS

Home | Current Version | Previous Version | Graphics & Text | Print | Product List | Glossary On
Versions: 1 2 3 4 5 6 7 8 9 10 11 12 13 14 15 16 17 18 19 20 21 22 23 24 25 26 27 28 29 30 31 32 33 34 35 36 37 38 39 40 41 42 43 44 45 46 47 48 49 50
000
ASUS45 KPSR 062010
RWRAZ

ARIZONA HOURLY REGIONAL WEATHER ROUNDUP
NATIONAL WEATHER SERVICE PHOENIX AZ
100 PM MST SAT FEB 06 2016

NOTE: FAIR INDICATES FEW OR NO CLOUDS BELOW 12,000 FEET WITH NO
SIGNIFICANT WEATHER AND/OR OBSTRUCTIONS TO VISIBILITY.

AZZ001>003-036-062100-
NORTHWEST ARIZONA

CITY           SKY/WX    TMP DP  RH WIND       PRES   REMARKS
BULLHEAD CITY  SUNNY     63  23  22 N29G35    30.36F
KINGMAN        SUNNY     56  32  40 N13       30.38F
$$

AZZ004>008-015-016-018-062100-
NORTH CENTRAL ARIZONA

CITY           SKY/WX    TMP DP  RH WIND       PRES   REMARKS
GRAND CANYON   SUNNY     49   6  17 NE6       30.41F
WILLIAMS       SUNNY     45  14  29 CALM      30.46F
PRESCOTT       SUNNY     49  16  26 NW6       30.39F
FLAGSTAFF      SUNNY     40  16  37 E9        30.42F WCI  34
PAYSON         SUNNY     55   7  14 VRB3      30.37F
PAGE           SUNNY     38  24  57 N6        30.50F WCI  33
$$

AZZ009>014-017-062100-
NORTHEAST ARIZONA

CITY           SKY/WX    TMP DP  RH WIND       PRES   REMARKS
WINSLOW        SUNNY     43  16  33 MISG      30.47F
SAINT JOHNS    SUNNY     45  12  26 VRB3      30.41F
WINDOW ROCK    SUNNY     43   0  16 VRB6      30.41F
SHOW LOW       SUNNY     41  18  38 N6        30.42F
$$

AZZ023-062100-
GREATER PHOENIX AREA

CITY           SKY/WX    TMP DP  RH WIND       PRES   REMARKS
PHOENIX        MOSUNNY   69  12  11 NE14      30.26F
BUCKEYE        SUNNY     66  14  13 E13G20    30.30F
GLENDALE       MOSUNNY   66  16  14 NE6       30.29F
LUKE AFB       SUNNY     67  16  14 E6        30.26F
DEER VALLEY    SUNNY     67  14  13 E10       30.26F
SCOTTSDALE     SUNNY     67  11  11 NE3       30.29F
MESA-FALCON    SUNNY    N/A N/A N/A SE7       30.27F
MESA-GATEWAY   MOSUNNY   64  16  15 CALM      30.28F
$$

AZZ027-028-062100-
SOUTHWEST MARICOPA COUNTY AND PINAL COUNTY

CITY           SKY/WX    TMP DP  RH WIND       PRES   REMARKS
CASA GRANDE    SUNNY     68  16  13 NE15G26   30.26F
GILA BEND      FAIR      68  13  12 E15       30.24F
$$

AZZ503-504-507>509-062100-
SOUTHEAST ARIZONA

CITY           SKY/WX    TMP DP  RH WIND       PRES   REMARKS
TUCSON         SUNNY     69  -5   5 E17G26    30.27F
DAVIS-MONTHAN  SUNNY     68   2   7 N7        30.25F
RYAN FIELD     SUNNY     70  12  11 E12G20    30.27F
NOGALES        SUNNY     69   8   9 MISG      30.26F
SIERRA VISTA   SUNNY     58  -1   9 VRB6      30.34F
DOUGLAS        SUNNY     61  -3   7 E6        30.34F
SAFFORD        SUNNY     57   9  14 S10       30.37F
$$

AZZ020-021-025-026-031-062100-
SOUTHWEST ARIZONA

CITY           SKY/WX    TMP DP  RH WIND       PRES   REMARKS
YUMA           SUNNY     70  21  15 N16       30.29F
$$

CAZ031-033-041-043-047-048-061-062100-
SOUTHERN CALIFORNIA

CITY           SKY/WX    TMP DP  RH WIND       PRES   REMARKS
DOWNTOWN L.A.  SUNNY     75  26  16 CALM      30.23F
L.A. AIRPORT   SUNNY     74  19  12 W5        30.23F
SAN DIEGO      SUNNY     73  20  13 W9        30.23F
BURBANK        SUNNY     72  24  16 CALM      30.24F
ONTARIO        SUNNY     71  23  16 SW5       30.25F
RIVERSIDE      SUNNY     74  20  13 N10G16    30.26F
PALM SPRINGS   SUNNY     71  22  15 VRB5      30.33F
EL CENTRO NAS  MOSUNNY   71  19  14 N7        30.33F
IMPERIAL       SUNNY     71  22  15 N7        30.31F
BLYTHE         SUNNY     67  23  19 NW15      30.34F
NEEDLES        SUNNY     66  23  19 NE18      30.36F
$$

NVZ020-UTZ003-062100-
SOUTHERN NEVADA-UTAH

CITY           SKY/WX    TMP DP  RH WIND       PRES   REMARKS
LAS VEGAS      MOSUNNY   55  23  28 SE3       30.39F
SALT LAKE CITY MOSUNNY   37  21  52 S3        30.51F
$$

NMZ009-TXZ055-062100-
NEW MEXICO-WEST TEXAS

CITY           SKY/WX    TMP DP  RH WIND       PRES   REMARKS
ALBUQUERQUE    SUNNY     46   7  20 N9        30.40F
EL PASO        MOSUNNY   52   5  15 VRB3      30.41F
$$


........................KEY........................
SKY/WX - SKY CONDITION/WEATHER
TMP    - TEMPERATURE IN FAHRENHEIT
DP     - DEW POINT IN FAHRENHEIT
RH     - RELATIVE HUMIDITY IN PERCENT
WIND   - DIRECTION AND SPEED IN MILES PER HOUR (MPH)
VRB    - VARIABLE WIND DIRECTION
PRES   - MEAN SEA LEVEL PRESSURE IN INCHES OF MERCURY
         F - FALLING PRESSURE   R - RISING PRESSURE
         S - STEADY PRESSURE
VSB    - VISIBILITY IN MILES
HX     - HEAT INDEX IN FAHRENHEIT
WCI    - WIND CHILL INDEX IN FAHRENHEIT
TC     - TEMPERATURE IN CELSIUS WHICH IS ALSO KNOWN AS
         TEMPERATURE IN CENTIGRADE
AFB    - AIR FORCE BASE
         LUKE AFB IS LUKE AIR FORCE BASE
         DAVIS-MONTHAN IS DAVIS-MONTHAN AIR FORCE BASE
NAS    - NAVAL AIR STATION
         EL CENTRO NAS IS EL CENTRO NAVAL AIR STATION
N/A    - NOT AVAILABLE




USA.gov is the U.S. government's official web portal to all federal, state and local government web resources and services.